Powrót do katalogu

THOR ABLESTAR DEB

AktywnyLEO
NORAD 334·DEBRIS·🇺🇸 United States

Wystrzelony Jun 29, 1961 z Cape Canaveral Space Force Station

Loading…

Następne Przeloty (najbliższe 24 godziny)

TLE

ŚwieżeSource: Space-Track

Epoka: Sep 7, 2026, 06:45 UTC

1 00334U 61015DL  26250.28129774 -.00000031  00000-0  34208-4 0  9994
2 00334  66.9265 344.2595 0074709  39.3051 321.3419 13.91757418307487

Śledź THOR ABLESTAR DEB w czasie rzeczywistym z AllMySat

Download on the App Store